This is the latest recevied weather packets stored in our database for station/object KI4HRG. If no packets are shown the sender has not sent any weather packets the latest 10 day(s).
| Time | Temp. | Humidity | Pressure | Rain* | Wind** | Luminosity | Snow |
|---|---|---|---|---|---|---|---|
| 1777749632 | 20° C | 39% | 1015.3 hPa | 0 mm | - | 665 W/m² | - |
| 1777749329 | 20.56° C | 37% | 1015.2 hPa | 0 mm | - | 674 W/m² | - |
| 1777749027 | 20.56° C | 37% | 1015.4 hPa | 0 mm | - | 691 W/m² | - |
| 1777748724 | 20° C | 39% | 1015.2 hPa | 0 mm | - | 698 W/m² | - |
| 1777748421 | 20.56° C | 38% | 1015.5 hPa | 0 mm | - | 677 W/m² | - |
| 1777748115 | 20.56° C | 39% | 1015.6 hPa | 0 mm | - | 672 W/m² | - |
| 1777747813 | 20.56° C | 39% | 1015.3 hPa | 0 mm | - | 653 W/m² | - |
| 1777747508 | 20° C | 38% | 1015.4 hPa | 0 mm | - | 636 W/m² | - |
| 1777747205 | 19.44° C | 39% | 1015.6 hPa | 0 mm | - | 663 W/m² | - |
| 1777746901 | 19.44° C | 38% | 1015.6 hPa | 0 mm | - | 709 W/m² | - |
| 1777746596 | 19.44° C | 38% | 1015.6 hPa | 0 mm | - | 717 W/m² | - |
| 1777746292 | 18.89° C | 37% | 1015.8 hPa | 0 mm | - | 720 W/m² | - |
| 1777745988 | 20° C | 36% | 1015.8 hPa | 0 mm | - | 738 W/m² | - |
| 1777745687 | 19.44° C | 40% | 1015.8 hPa | 0 mm | - | 711 W/m² | - |
| 1777745385 | 19.44° C | 38% | 1015.8 hPa | 0 mm | - | 757 W/m² | - |
| 1777745082 | 20° C | 38% | 1015.8 hPa | 0 mm | - | 731 W/m² | - |
| 1777744778 | 18.89° C | 38% | 1015.9 hPa | 0 mm | - | 716 W/m² | - |
| 1777744472 | 18.89° C | 40% | 1016.1 hPa | 0 mm | - | 712 W/m² | - |
| 1777744169 | 18.89° C | 41% | 1016.1 hPa | 0 mm | - | 695 W/m² | - |
| 1777743866 | 19.44° C | 39% | 1015.9 hPa | 0 mm | - | 687 W/m² | - |
| 1777743562 | 19.44° C | 39% | 1016.1 hPa | 0 mm | - | 691 W/m² | - |
| 1777743259 | 18.89° C | 42% | 1016.2 hPa | 0 mm | - | 703 W/m² | - |
| 1777742958 | 18.89° C | 43% | 1016.3 hPa | 0 mm | - | 694 W/m² | - |
| 1777742655 | 18.33° C | 44% | 1016.3 hPa | 0 mm | - | 696 W/m² | - |
| 1777742350 | 18.33° C | 44% | 1016.1 hPa | 0 mm | - | 701 W/m² | - |
* Rain latest hour (hover to see other rain measurements)
** Current wind speed in m/s (hover to see current wind gust speed)